Погода в Больших Манадышах

Россия / Республика Мордовия     54°33′44″N   45°59′32″E
темп.,
°C
ветер,
м/с
пор.,
м/с
влажн.,
%
обл.,
%
осадки,
мм/ч
давл.,
гПа
погр.,
м
15 апреля, чт
чт1500:00+11юв22850 0.0 102116
03:00+9юв22853 0.0 102112
06:00+9юв22790 0.0 102018
09:00+14ююв345649 0.0 1019268
12:00+18юв223538 0.0 10191283
15:00+19всв21312 0.0 10181366
18:00+17св32446 0.0 101829
21:00+13св355899 0.0 101859
16 апреля, пт
пт1600:00+11всв346173 0.0 101849
03:00+9всв367298 0.0 101981
06:00+8св5119198 0.0 1020234
09:00+10всв6986100 0.0 1021429
12:00+12всв6875100 0.0 1022614
15:00+15всв676399 0.0 1022884
18:00+13всв596963 0.0 1022549
21:00+9всв6118220 0.0 1024354
17 апреля, сб
сб1700:00+7всв5118423 0.0 1024291
03:00+5всв411829 0.0 1025241
06:00+5всв5118714 0.0 1025309
09:00+9всв69715 0.0 1025514
12:00+12всв895614 0.0 1024803
15:00+13в79485 0.0 1024914
18:00+11всв69505 0.0 1024595
21:00+8всв714523 0.0 1024351
18 апреля, вс
вс1800:00+5всв513595 0.0 1024311
03:00+5всв613634 0.0 1024314
06:00+4всв613685 0.0 1024360
09:00+8всв710521 0.0 1023780
12:00+11в67404 0.0 10231405
15:00+12в673788 0.0 10231770
18:00+11в5945100 0.0 1023758
21:00+8всв41157100 0.0 1024510
19 апреля, пн
пн1900:00+6всв7137498 0.0 1026539
03:00+4всв6127297 0.0 1027491
06:00+2всв61261100 0.0 1027471
09:00+4в71051100 0.0 1028739
12:00+6в8944100 0.0 10281266
15:00+7в81038100 0.0 10271528
18:00+6всв6104486 0.0 10271176
21:00+4всв61348100 0.0 1028544